Погода в Калабасасе

США     34°08′09″N   118°41′04″W
темп.,
°C
ветер,
м/с
пор.,
м/с
влажн.,
%
обл.,
%
осадки,
мм/ч
давл.,
гПа
погр.,
м
31 июля, сб
сб3123:00+21юв1157100 0.0 101541
02:00+20юз1162100 0.0 101534
05:00+19з11652 0.0 101521
08:00+23ссз114697 0.0 1016154
11:00+32зюз332290 0.0 1016811
14:00+34з651699 0.0 1015978
17:00+31з661791 0.0 1015559
20:00+20зсз23415 0.0 101643
1 августа, вс
вс123:00+19ссз11475 0.0 101626
02:00+20с113911 0.0 101518
05:00+19сз01373 0.0 101611
08:00+25сз11230 0.0 1017145
11:00+32з43150 0.0 1016755
14:00+34з65120 0.0 1016821
17:00+30з67160 0.0 1015425
20:00+21зсз23300 0.0 101639
2 августа, пн
пн223:00+20с22370 0.0 101626
02:00+20всв11340 0.0 101611
05:00+19ссв11340 0.0 101611
08:00+26с11210 0.0 1016127
11:00+34зюз2290 0.0 1015885
14:00+37з6570 0.0 10141309
17:00+33з66100 0.0 1013541
20:00+21зсз22310 0.0 101437
3 августа, вт
вт323:00+20ссз11310 0.0 101422
02:00+21всв12240 0.0 101311
05:00+20св01260 0.0 101311
08:00+28ссв01140 0.0 1013114
11:00+35юз2190 0.0 1013779
14:00+38зюз54100 0.0 10111280
17:00+33з54140 0.0 1011491
20:00+22сз22340 0.0 101132
4 августа, ср
ср423:00+22в11270 0.0 101116
02:00+21ю11350 0.0 101121
05:00+20ссв00460 0.0 101115
08:00+27вюв01260 0.0 1012143
11:00+34зюз22140 0.0 1012751
14:00+36з54140 0.0 10111052
17:00+34з44130 0.0 1010613
20:00+24зсз22340 0.0 101028